Location: Seattle
(47.6064°N, 122.3308°W)
Time: 02:53:25
(UTC-08:00)

N. Korean satellite - Pass Details

Date: 04 November 2020
Orbit: 453 x 503 km, 97.2° (Epoch: 03 December)

Event Time Altitude Azimuth Distance (km) Brightness Sun altitude
Rises 04:52:38 0° 27° (NNE) 2,478 10.5 -21.6°
Reaches altitude 10° 04:55:08 10° 47° (NE) 1,600 9.8 -21.1°
Maximum altitude 04:57:37 18° 93° (E) 1,172 9.4 -20.7°
Drops below altitude 10° 05:00:05 10° 139° (SE) 1,598 9.7 -20.3°
Sets 05:02:34 0° 159° (SSE) 2,473 10.5 -19.9°
